Hagerstown, MD

1:45 AM EST on November 12, 2019 (GMT -0500)
Hagerstown Regional-Henson

Weather History for KHGR - September, 2019

Change the Weather History Date:

Wednesday, September 4, 2019

  Actual Average Record
Temperature  
Mean Temperature 81 °F 70 °F  
Max Temperature 93 °F 79 °F 95 °F (2018)
Min Temperature 69 °F 60 °F 33 °F (1996)
Degree Days  
Heating Degree Days 0 0  
Month to date heating degree days 0 0  
Since 1 July heating degree days 0 5  
Cooling Degree Days 16 5  
Month to date cooling degree days 44 23  
Year to date cooling degree days 1253 891  
Growing Degree Days 30 (Base 50)    
Moisture  
Dew Point 63 °F    
Average Humidity 60    
Maximum Humidity 84    
Minimum Humidity 36    
Precipitation  
Precipitation 0.00 in 0.10 in 0.49 in (2003)
Month to date precipitation 0.05 0.38  
Year to date precipitation 28.42 27.01  
Sea Level Pressure  
Sea Level Pressure 29.97 in    
Wind  
Wind Speed 10 mph (SW)    
Max Wind Speed 21 mph    
Max Gust Speed 28 mph    
Visibility 10 miles    
Events      
T = Trace of Precipitation, MM = Missing Value Source: NWS Daily Summary

Daily Weather History Graph

Daily Weather History Graph

Search for Another Location

Airport or City:

Astronomy

Sep. 04, 2019 Rise Set
Actual Time 6:41 AM EDT 7:37 PM EDT
Civil Twilight 6:14 AM EDT 8:05 PM EDT
Nautical Twilight 5:41 AM EDT 8:37 PM EDT
Astronomical Twilight 5:07 AM EDT 9:11 PM EDT
Moon 12:39 PM EDT (9/4) 11:11 PM EDT (9/4)
Length of Visible Light 13h 51m
Length of Day
12h 56m
Waxing Crescent, 34% of the Moon is Illuminated
Sep 4
Waxing Crescent
Sep 5
First Quarter
Sep 14
Full
Sep 21
Last Quarter
Sep 28
New

Hourly Weather History & Observations

Time (EDT) Temp. Heat Index Dew Point Humidity Pressure Visibility Wind Dir Wind Speed Gust Speed Precip Events Conditions
12:53 AM 73.9 °F - 63.0 °F 68% 30.00 in 10.0 mi South 10.4 mph - N/A   Clear
1:53 AM 72.0 °F - 63.0 °F 73% 29.99 in 10.0 mi South 8.1 mph - N/A   Clear
2:53 AM 71.1 °F - 64.0 °F 78% 29.98 in 10.0 mi South 5.8 mph - N/A   Clear
3:53 AM 70.0 °F - 64.0 °F 81% 29.97 in 10.0 mi South 9.2 mph - N/A   Clear
4:53 AM 70.0 °F - 64.9 °F 84% 29.98 in 10.0 mi South 6.9 mph - N/A   Clear
5:53 AM 70.0 °F - 64.9 °F 84% 29.97 in 10.0 mi South 9.2 mph - N/A   Clear
6:53 AM 70.0 °F - 64.9 °F 84% 29.99 in 10.0 mi SSW 6.9 mph - N/A   Clear
7:53 AM 71.1 °F - 64.9 °F 81% 29.99 in 10.0 mi South 10.4 mph - N/A   Clear
8:53 AM 75.0 °F - 64.0 °F 69% 29.98 in 10.0 mi South 11.5 mph - N/A   Clear
9:53 AM 78.1 °F - 64.0 °F 62% 29.98 in 10.0 mi SSW 10.4 mph - N/A   Clear
10:53 AM 82.0 °F 84.1 °F 66.0 °F 58% 29.98 in 10.0 mi SW 11.5 mph - N/A   Clear
11:53 AM 86.0 °F 87.6 °F 64.9 °F 49% 29.96 in 10.0 mi SSW 9.2 mph - N/A   Scattered Clouds
12:53 PM 87.1 °F 89.2 °F 66.0 °F 49% 29.94 in 10.0 mi WSW 10.4 mph - N/A   Mostly Cloudy
1:53 PM 90.0 °F 92.4 °F 66.0 °F 45% 29.92 in 10.0 mi West 12.7 mph - N/A   Partly Cloudy
2:53 PM 91.9 °F 93.3 °F 64.0 °F 39% 29.91 in 10.0 mi WSW 15.0 mph 21.9 mph N/A   Scattered Clouds
3:53 PM 91.9 °F 92.5 °F 62.1 °F 37% 29.91 in 10.0 mi West 15.0 mph 25.3 mph N/A   Mostly Cloudy
4:53 PM 91.0 °F 90.9 °F 61.0 °F 36% 29.91 in 10.0 mi West 16.1 mph 24.2 mph N/A   Partly Cloudy
5:53 PM 91.0 °F 90.5 °F 60.1 °F 35% 29.92 in 10.0 mi NW 11.5 mph - N/A   Partly Cloudy
6:53 PM 86.0 °F 86.3 °F 62.1 °F 44% 29.95 in 10.0 mi NNW 12.7 mph - N/A   Clear
7:53 PM 82.0 °F 82.7 °F 61.0 °F 49% 29.97 in 10.0 mi NNW 8.1 mph - N/A   Clear
8:53 PM 80.1 °F 80.7 °F 59.0 °F 48% 29.99 in 10.0 mi NNW 8.1 mph - N/A   Clear
9:53 PM 75.9 °F - 59.0 °F 56% 30.00 in 10.0 mi North 4.6 mph - N/A   Clear
10:53 PM 73.9 °F - 57.9 °F 57% 30.01 in 10.0 mi NNE 4.6 mph - N/A   Clear
11:53 PM 73.0 °F - 57.9 °F 59% 30.02 in 10.0 mi North 10.4 mph - N/A   Clear